,,Stat1,,Stat2,,Stat3,,Stat4,,Wind1,,Wind1,
time,status,PR1M_SUM,status,RH1M_AVG,status,SR1M_AVG,status,TA1M_AVG,status,W1dAve1m,status,W1sAve1m,
2000-02-06, 00:00:00,VALID,0,VALID,96.7945,VALID,-0.0849042,VALID,19.4288,VALID,188,VALID,0.325658,
2000-02-06, 00:01:00,VALID,0,VALID,96.909,VALID,-0.101885,VALID,19.445,VALID,203,VALID,0.379934,
2000-02-06, 00:02:00,VALID,0,VALID,96.8352,VALID,-0.101885,VALID,19.4519,VALID,164,VALID,0.125,
2000-02-06, 00:03:00,VALID,0,VALID,96.7386,VALID,-0.101885,VALID,19.4547,VALID,164,VALID,0,
2000-02-06, 00:04:00,VALID,0,VALID,96.6928,VALID,-0.101885,VALID,19.4552,VALID,164,VALID,0,
2000-02-06, 00:05:01,VALID,0,VALID,96.7182,VALID,-0.101885,VALID,19.4619,VALID,187,VALID,0,
2000-02-06, 00:06:01,VALID,0,VALID,96.8174,VALID,-0.101885,VALID,19.4681,VALID,181,VALID,0,
2000-02-06, 00:07:00,VALID,0,VALID,96.7704,VALID,-0.118866,VALID,19.4517,VALID,191,VALID,0,
2000-02-06, 00:08:00,VALID,0,VALID,96.8022,VALID,-0.101885,VALID,19.4492,VALID,195,VALID,0,
2000-02-06, 00:09:00,VALID,0,VALID,96.7856,VALID,-0.0849042,VALID,19.4263,VALID,194,VALID,0,
2000-02-06, 00:10:00,VALID,0,VALID,96.2579,VALID,-0.118866,VALID,19.3841,VALID,186,VALID,0,
2000-02-06, 00:11:00,VALID,0,VALID,95.4479,VALID,0,VALID,19.2795,VALID,144,VALID,0.195913,
2000-02-06, 00:12:00,VALID,0,VALID,95.7989,VALID,0,VALID,19.1886,VALID,122,VALID,0.864926,
2000-02-06, 00:13:00,VALID,0,VALID,96.0583,VALID,0.0339617,VALID,19.1011,VALID,119,VALID,1.07656,
2000-02-06, 00:14:00,VALID,0,VALID,96.3965,VALID,0.0339617,VALID,19.0718,VALID,122,VALID,1.13455,
2000-02-06, 00:15:00,VALID,0,VALID,96.984,VALID,0,VALID,19.069,VALID,128,VALID,1.02837,
2000-02-06, 00:16:01,VALID,0,VALID,97.1112,VALID,0,VALID,19.0434,VALID,132,VALID,0.500411,
2000-02-06, 00:17:01,VALID,0,VALID,97.1798,VALID,0,VALID,19.0271,VALID,145,VALID,0.550164,
2000-02-06, 00:18:00,VALID,0,VALID,97.2816,VALID,0.0509425,VALID,19.0308,VALID,148,VALID,0.506727,
2000-02-06, 00:19:00,VALID,0,VALID,97.2816,VALID,0,VALID,18.9952,VALID,140,VALID,0.337023,
2000-02-06, 00:20:00,VALID,0,VALID,97.2269,VALID,0,VALID,18.9756,VALID,130,VALID,0.0794922,
2000-02-06, 00:21:00,VALID,0,VALID,97.2536,VALID,0,VALID,18.9629,VALID,129,VALID,0,
2000-02-06, 00:22:00,VALID,0,VALID,97.3553,VALID,0.0169808,VALID,18.9366,VALID,130,VALID,0,
2000-02-06, 00:23:00,VALID,0,VALID,97.3477,VALID,-0.0339617,VALID,18.9306,VALID,129,VALID,0,
2000-02-06, 00:24:00,VALID,0,VALID,97.2816,VALID,0,VALID,18.9376,VALID,130,VALID,0,
2000-02-06, 00:25:00,VALID,0,VALID,97.251,VALID,0,VALID,18.9244,VALID,130,VALID,0,
2000-02-06, 00:26:00,VALID,0,VALID,97.0908,VALID,0.0169808,VALID,18.911,VALID,134,VALID,0,
2000-02-06, 00:27:00,VALID,0,VALID,96.7869,VALID,0.0169808,VALID,18.8854,VALID,191,VALID,0,
2000-02-06, 00:28:00,VALID,0,VALID,96.7106,VALID,0.0509425,VALID,18.8399,VALID,222,VALID,0.116016,
2000-02-06, 00:29:00,VALID,0,VALID,96.9675,VALID,0.0339617,VALID,18.821,VALID,208,VALID,0.400608,
2000-02-06, 00:30:00,VALID,0,VALID,97.251,VALID,0,VALID,18.8176,VALID,204,VALID,0.0528372,
2000-02-06, 00:31:00,VALID,0,VALID,97.4647,VALID,0.0339617,VALID,18.8049,VALID,204,VALID,0,
2000-02-06, 00:32:00,VALID,0,VALID,97.5779,VALID,0.0509425,VALID,18.8019,VALID,206,VALID,0,
2000-02-06, 00:33:00,VALID,0,VALID,97.588,VALID,0,VALID,18.7726,VALID,209,VALID,0,
2000-02-06, 00:34:00,VALID,0,VALID,97.6402,VALID,0.0509425,VALID,18.7627,VALID,210,VALID,0,
2000-02-06, 00:35:00,VALID,0,VALID,97.7101,VALID,0.0339617,VALID,18.7497,VALID,210,VALID,0,
2000-02-06, 00:36:00,VALID,0,VALID,97.4036,VALID,0.0169808,VALID,18.6985,VALID,191,VALID,0,
2000-02-06, 00:37:00,VALID,0,VALID,96.9865,VALID,0.0679233,VALID,18.63,VALID,152,VALID,0,
2000-02-06, 00:38:01,VALID,0,VALID,97.1391,VALID,0.0509425,VALID,18.6009,VALID,152,VALID,0,
2000-02-06, 00:39:00,VALID,0,VALID,97.5969,VALID,0.0679233,VALID,18.624,VALID,152,VALID,0.233742,
2000-02-06, 00:40:00,VALID,0,VALID,98.042,VALID,0.0169808,VALID,18.6563,VALID,163,VALID,0.489258,
2000-02-06, 00:41:00,VALID,0,VALID,98.1424,VALID,-0.0169808,VALID,18.6803,VALID,168,VALID,0.626402,
2000-02-06, 00:42:00,VALID,0,VALID,98.529,VALID,-0.0339617,VALID,18.702,VALID,169,VALID,0.634457,
2000-02-06, 00:43:00,VALID,0,VALID,98.6727,VALID,-0.0169808,VALID,18.7509,VALID,176,VALID,0.681055,
2000-02-06, 00:44:00,VALID,0,VALID,98.6765,VALID,-0.0339617,VALID,18.7514,VALID,182,VALID,0.770833,
2000-02-06, 00:45:00,VALID,0,VALID,98.8901,VALID,-0.0679233,VALID,18.7869,VALID,170,VALID,0.776933,
2000-02-06, 00:46:00,VALID,0,VALID,98.8889,VALID,-0.0849042,VALID,18.8257,VALID,168,VALID,0.583676,
2000-02-06, 00:47:00,VALID,0,VALID,98.7414,VALID,-0.0849042,VALID,18.8229,VALID,192,VALID,1.04585,
2000-02-06, 00:48:01,VALID,0,VALID,98.5532,VALID,-0.0849042,VALID,18.8068,VALID,196,VALID,0.983507,
2000-02-06, 00:49:00,VALID,0,VALID,98.3955,VALID,-0.0849042,VALID,18.7897,VALID,192,VALID,0.983507,
2000-02-06, 00:50:00,VALID,0,VALID,98.2925,VALID,-0.0679233,VALID,18.8095,VALID,192,VALID,1.18535,
2000-02-06, 00:51:00,VALID,0,VALID,98.1882,VALID,-0.101885,VALID,18.7966,VALID,191,VALID,1.16406,
2000-02-06, 00:52:00,VALID,0,VALID,98.0827,VALID,-0.0339617,VALID,18.7939,VALID,200,VALID,0.997533,
2000-02-06, 00:53:00,VALID,0,VALID,98.1272,VALID,-0.101885,VALID,18.7606,VALID,194,VALID,1.27652,
2000-02-06, 00:54:00,VALID,0,VALID,98.2493,VALID,-0.0679233,VALID,18.7805,VALID,187,VALID,1.27618,
2000-02-06, 00:55:00,VALID,0,VALID,98.2391,VALID,-0.0849042,VALID,18.7839,VALID,183,VALID,1.24883,
2000-02-06, 00:56:00,VALID,0,VALID,98.1564,VALID,-0.0169808,VALID,18.7447,VALID,187,VALID,1.18109,
2000-02-06, 00:57:00,VALID,0,VALID,98.309,VALID,-0.0509425,VALID,18.7417,VALID,189,VALID,1.35732,
2000-02-06, 00:58:00,VALID,0,VALID,98.3344,VALID,-0.0849042,VALID,18.7223,VALID,185,VALID,1.38906,
2000-02-06, 00:59:00,VALID,0,VALID,98.3167,VALID,-0.0849042,VALID,18.7096,VALID,185,VALID,1.13325,
2000-02-06, 01:00:00,VALID,0,VALID,98.3573,VALID,-0.0339617,VALID,18.687,VALID,191,VALID,1.34642,
2000-02-06, 01:01:00,VALID,0,VALID,98.3268,VALID,-0.0849042,VALID,18.664,VALID,197,VALID,1.11863,
2000-02-06, 01:02:00,VALID,0,VALID,98.3281,VALID,-0.0339617,VALID,18.6746,VALID,208,VALID,1.19655,
2000-02-06, 01:03:00,VALID,0,VALID,98.2594,VALID,-0.0339617,VALID,18.661,VALID,198,VALID,1.28277,
2000-02-06, 01:04:00,VALID,0,VALID,98.1793,VALID,-0.0849042,VALID,18.6612,VALID,200,VALID,0.938802,
2000-02-06, 01:05:00,VALID,0,VALID,98.0776,VALID,-0.0509425,VALID,18.6547,VALID,206,VALID,1.02773,
2000-02-06, 01:06:00,VALID,0,VALID,98.0255,VALID,-0.0339617,VALID,18.645,VALID,215,VALID,1.28477,
2000-02-06, 01:07:00,VALID,0,VALID,98.0267,VALID,-0.0339617,VALID,18.645,VALID,216,VALID,1.35814,
2000-02-06, 01:08:00,VALID,0,VALID,98.145,VALID,-0.0169808,VALID,18.6383,VALID,214,VALID,1.46772,
2000-02-06, 01:09:00,VALID,0,VALID,98.3764,VALID,-0.101885,VALID,18.6644,VALID,205,VALID,1.38661,
2000-02-06, 01:10:00,VALID,0,VALID,98.4425,VALID,-0.0509425,VALID,18.6806,VALID,201,VALID,1.14199,
2000-02-06, 01:11:00,VALID,0,VALID,98.7121,VALID,0.0339617,VALID,18.7281,VALID,190,VALID,1.55088,
2000-02-06, 01:12:00,VALID,0,VALID,98.7134,VALID,0.0679233,VALID,18.7597,VALID,187,VALID,1.28331,
2000-02-06, 01:13:00,VALID,0,VALID,98.674,VALID,0.101885,VALID,18.7594,VALID,191,VALID,1.21152,
2000-02-06, 01:14:00,VALID,0,VALID,98.5201,VALID,0.101885,VALID,18.7267,VALID,194,VALID,1.05968,
2000-02-06, 01:15:00,VALID,0,VALID,98.5862,VALID,0.0679233,VALID,18.7366,VALID,191,VALID,1.12212,
2000-02-06, 01:16:00,VALID,0,VALID,98.5074,VALID,0.0849042,VALID,18.7304,VALID,183,VALID,1.05962,
2000-02-06, 01:17:00,VALID,0,VALID,98.5315,VALID,0.101885,VALID,18.7269,VALID,197,VALID,0.83162,
2000-02-06, 01:18:00,VALID,0,VALID,98.6638,VALID,0.0679233,VALID,18.7567,VALID,191,VALID,1.01476,
2000-02-06, 01:19:00,VALID,0,VALID,98.5989,VALID,0.0169808,VALID,18.7694,VALID,206,VALID,0.844835,
2000-02-06, 01:20:00,VALID,0,VALID,98.6918,VALID,0.0339617,VALID,18.8019,VALID,213,VALID,0.895117,
2000-02-06, 01:21:01,VALID,0,VALID,98.7032,VALID,0.0339617,VALID,18.8277,VALID,214,VALID,0.888281,
2000-02-06, 01:22:00,VALID,0,VALID,98.6854,VALID,0.0339617,VALID,18.8374,VALID,207,VALID,1.1507,
2000-02-06, 01:23:00,VALID,0,VALID,98.7197,VALID,0.0339617,VALID,18.8762,VALID,214,VALID,1.40933,
2000-02-06, 01:24:00,VALID,0,VALID,98.5913,VALID,0.0509425,VALID,18.876,VALID,219,VALID,1.35431,
2000-02-06, 01:25:00,VALID,0,VALID,98.4667,VALID,0.0339617,VALID,18.8794,VALID,210,VALID,1.38828,
2000-02-06, 01:26:00,VALID,0,VALID,98.3167,VALID,0,VALID,18.8605,VALID,197,VALID,1.07232,
2000-02-06, 01:27:00,VALID,0,VALID,98.1679,VALID,-0.0849042,VALID,18.8615,VALID,210,VALID,0.954975,
2000-02-06, 01:28:00,VALID,0,VALID,98.0382,VALID,-0.0339617,VALID,18.8511,VALID,205,VALID,0.625781,
2000-02-06, 01:29:00,VALID,0,VALID,97.869,VALID,-0.101885,VALID,18.8582,VALID,199,VALID,0.875,
2000-02-06, 01:30:00,VALID,0,VALID,97.7165,VALID,-0.0509425,VALID,18.8513,VALID,206,VALID,0.581826,
2000-02-06, 01:31:00,VALID,0,VALID,97.541,VALID,-0.0509425,VALID,18.8513,VALID,186,VALID,0.77241,
2000-02-06, 01:32:01,VALID,0,VALID,97.4443,VALID,-0.0849042,VALID,18.8322,VALID,210,VALID,0.717311,
2000-02-06, 01:33:01,VALID,0,VALID,97.4189,VALID,-0.0509425,VALID,18.8319,VALID,204,VALID,0.52322,
2000-02-06, 01:34:00,VALID,0,VALID,97.4278,VALID,-0.0339617,VALID,18.8229,VALID,200,VALID,0.644748,
2000-02-06, 01:35:00,VALID,0,VALID,97.513,VALID,-0.0849042,VALID,18.7999,VALID,203,VALID,0.391992,
2000-02-06, 01:36:00,VALID,0,VALID,97.4736,VALID,-0.0849042,VALID,18.7648,VALID,203,VALID,0.00449219,
2000-02-06, 01:37:00,VALID,0,VALID,97.0311,VALID,-0.101885,VALID,18.6773,VALID,203,VALID,0,
2000-02-06, 01:38:00,VALID,0,VALID,96.5746,VALID,-0.0339617,VALID,18.5964,VALID,203,VALID,0,
2000-02-06, 01:39:00,VALID,0,VALID,96.4512,VALID,-0.0679233,VALID,18.532,VALID,203,VALID,0,
2000-02-06, 01:40:00,VALID,0,VALID,96.9649,VALID,-0.0509425,VALID,18.5022,VALID,203,VALID,0,
2000-02-06, 01:41:00,VALID,0,VALID,97.3375,VALID,0.0509425,VALID,18.4988,VALID,203,VALID,0,
2000-02-06, 01:42:00,VALID,0,VALID,97.6249,VALID,0.0169808,VALID,18.4946,VALID,203,VALID,0,
2000-02-06, 01:43:00,VALID,0,VALID,97.733,VALID,0.0679233,VALID,18.5077,VALID,203,VALID,0,
2000-02-06, 01:44:00,VALID,0,VALID,97.457,VALID,0.0169808,VALID,18.4692,VALID,203,VALID,0.0266927,
2000-02-06, 01:45:00,VALID,0,VALID,97.2816,VALID,0.0509425,VALID,18.424,VALID,211,VALID,0.328947,
2000-02-06, 01:46:00,VALID,0,VALID,97.4329,VALID,0.0509425,VALID,18.3945,VALID,225,VALID,0.411184,
2000-02-06, 01:47:00,VALID,0,VALID,97.8055,VALID,0.0169808,VALID,18.4208,VALID,232,VALID,0.629317,
2000-02-06, 01:48:00,VALID,0,VALID,98.0077,VALID,0.0169808,VALID,18.4406,VALID,234,VALID,0.527344,
2000-02-06, 01:49:00,VALID,0,VALID,98.0572,VALID,0.0509425,VALID,18.4439,VALID,222,VALID,0.64974,
2000-02-06, 01:50:00,VALID,0,VALID,98.0242,VALID,0.0339617,VALID,18.4339,VALID,227,VALID,0.45293,
2000-02-06, 01:51:00,VALID,0,VALID,97.9695,VALID,0.0679233,VALID,18.4111,VALID,208,VALID,0.439258,
2000-02-06, 01:52:00,VALID,0,VALID,98.028,VALID,0.0679233,VALID,18.4146,VALID,204,VALID,0.552837,
2000-02-06, 01:53:00,VALID,0,VALID,98.07,VALID,0.0339617,VALID,18.4249,VALID,195,VALID,0.195107,
2000-02-06, 01:54:00,VALID,0,VALID,98.0153,VALID,0.0169808,VALID,18.4016,VALID,179,VALID,0,
2000-02-06, 01:55:00,VALID,0,VALID,97.8436,VALID,0.0339617,VALID,18.3624,VALID,160,VALID,0,
2000-02-06, 01:56:00,VALID,0,VALID,97.2383,VALID,-0.0169808,VALID,18.2538,VALID,151,VALID,0,
2000-02-06, 01:57:00,VALID,0,VALID,96.4932,VALID,-0.0509425,VALID,18.1248,VALID,148,VALID,0.0113076,
2000-02-06, 01:58:00,VALID,0,VALID,97.5295,VALID,-0.0679233,VALID,18.1419,VALID,153,VALID,0.849609,
2000-02-06, 01:59:00,VALID,0,VALID,98.4018,VALID,-0.0849042,VALID,18.2224,VALID,164,VALID,0.851128,
2000-02-06, 02:00:00,VALID,0,VALID,98.7859,VALID,0,VALID,18.3156,VALID,173,VALID,0.983347,
2000-02-06, 02:01:00,VALID,0,VALID,98.9219,VALID,-0.0339617,VALID,18.3829,VALID,179,VALID,0.994449,
2000-02-06, 02:02:00,VALID,0,VALID,98.899,VALID,-0.0339617,VALID,18.4381,VALID,187,VALID,1.15132,
2000-02-06, 02:03:00,VALID,0,VALID,98.7414,VALID,-0.0679233,VALID,18.4549,VALID,194,VALID,1.04883,
2000-02-06, 02:04:00,VALID,0,VALID,98.454,VALID,-0.0339617,VALID,18.4263,VALID,204,VALID,0.814887,
2000-02-06, 02:05:01,VALID,0,VALID,98.3344,VALID,-0.0509425,VALID,18.3869,VALID,196,VALID,0.943555,
2000-02-06, 02:06:01,VALID,0,VALID,98.3561,VALID,-0.0679233,VALID,18.3447,VALID,198,VALID,1.1582,
2000-02-06, 02:07:00,VALID,0,VALID,98.4273,VALID,-0.101885,VALID,18.3197,VALID,194,VALID,1.29523,
2000-02-06, 02:08:00,VALID,0,VALID,98.4972,VALID,-0.0849042,VALID,18.2805,VALID,193,VALID,1.24342,
2000-02-06, 02:09:00,VALID,0,VALID,98.7223,VALID,-0.0849042,VALID,18.2478,VALID,195,VALID,1.17589,
2000-02-06, 02:10:00,VALID,0,VALID,98.8952,VALID,-0.0849042,VALID,18.2514,VALID,186,VALID,1.00859,
2000-02-06, 02:11:00,VALID,0,VALID,98.9448,VALID,0,VALID,18.2378,VALID,198,VALID,0.822716,
2000-02-06, 02:12:00,VALID,0,VALID,99.0567,VALID,0,VALID,18.2212,VALID,191,VALID,0.715461,
2000-02-06, 02:13:00,VALID,0,VALID,99.0847,VALID,0.0169808,VALID,18.2249,VALID,195,VALID,0.538672,
2000-02-06, 02:14:00,VALID,0,VALID,99.2017,VALID,0.0169808,VALID,18.2212,VALID,193,VALID,0.6148,
2000-02-06, 02:15:00,VALID,0,VALID,99.2475,VALID,0.0169808,VALID,18.2372,VALID,189,VALID,0.604441,
2000-02-06, 02:16:01,VALID,0,VALID,99.3174,VALID,0.0169808,VALID,18.257,VALID,186,VALID,0.524465,
2000-02-06, 02:17:01,VALID,0,VALID,99.1801,VALID,0.0169808,VALID,18.2118,VALID,183,VALID,0.430304,
2000-02-06, 02:18:00,VALID,0,VALID,99.189,VALID,0,VALID,18.1859,VALID,164,VALID,0.646267,
2000-02-06, 02:19:00,VALID,0,VALID,99.2818,VALID,0.0169808,VALID,18.1823,VALID,160,VALID,0.791884,
2000-02-06, 02:20:00,VALID,0,VALID,99.3899,VALID,0.0509425,VALID,18.2272,VALID,167,VALID,0.827539,
2000-02-06, 02:21:00,VALID,0,VALID,99.4725,VALID,0.0169808,VALID,18.2791,VALID,176,VALID,0.935938,
2000-02-06, 02:22:00,VALID,0,VALID,99.5552,VALID,0,VALID,18.3507,VALID,186,VALID,1.17208,
2000-02-06, 02:23:00,VALID,0,VALID,99.5209,VALID,0,VALID,18.3889,VALID,182,VALID,0.942434,
2000-02-06, 02:24:00,VALID,0,VALID,99.4191,VALID,0.0169808,VALID,18.3763,VALID,193,VALID,0.955025,
2000-02-06, 02:25:00,VALID,0,VALID,99.3543,VALID,-0.0169808,VALID,18.3735,VALID,194,VALID,0.787109,
2000-02-06, 02:26:00,VALID,0,VALID,99.4204,VALID,0.0169808,VALID,18.3963,VALID,205,VALID,0.760817,
2000-02-06, 02:27:00,VALID,0,VALID,99.3657,VALID,-0.0169808,VALID,18.4254,VALID,207,VALID,0.509252,
2000-02-06, 02:28:01,VALID,0,VALID,99.3187,VALID,0,VALID,18.4185,VALID,220,VALID,0.774805,
2000-02-06, 02:29:00,VALID,0,VALID,99.3263,VALID,0,VALID,18.4473,VALID,216,VALID,0.721354,
2000-02-06, 02:30:00,VALID,0,VALID,99.2525,VALID,0.0169808,VALID,18.4572,VALID,211,VALID,0.739515,
2000-02-06, 02:31:00,VALID,0,VALID,99.2424,VALID,0.0169808,VALID,18.4439,VALID,207,VALID,0.872944,
2000-02-06, 02:32:00,VALID,0,VALID,99.2398,VALID,0.0339617,VALID,18.4734,VALID,201,VALID,0.773849,
2000-02-06, 02:33:00,VALID,0,VALID,99.1216,VALID,0,VALID,18.4704,VALID,195,VALID,1.06467,
2000-02-06, 02:34:00,VALID,0,VALID,98.9779,VALID,0.0169808,VALID,18.4409,VALID,177,VALID,1.04622,
2000-02-06, 02:35:00,VALID,0,VALID,98.941,VALID,-0.0169808,VALID,18.4409,VALID,169,VALID,0.950195,
2000-02-06, 02:36:00,VALID,0,VALID,98.7884,VALID,0,VALID,18.4056,VALID,155,VALID,1.06348,
2000-02-06, 02:37:00,VALID,0,VALID,98.8825,VALID,0,VALID,18.4185,VALID,154,VALID,1.25103,
2000-02-06, 02:38:01,VALID,0,VALID,98.6956,VALID,0,VALID,18.3922,VALID,150,VALID,0.98088,
2000-02-06, 02:39:01,VALID,0,VALID,98.6129,VALID,0,VALID,18.3767,VALID,159,VALID,1.18328,
2000-02-06, 02:40:00,VALID,0,VALID,98.7287,VALID,0,VALID,18.3998,VALID,164,VALID,1.15137,
2000-02-06, 02:41:00,VALID,0,VALID,98.7248,VALID,0,VALID,18.3802,VALID,185,VALID,1.05248,
2000-02-06, 02:42:00,VALID,0,VALID,98.8978,VALID,0,VALID,18.4093,VALID,187,VALID,1.5514,
2000-02-06, 02:43:00,VALID,0,VALID,98.9003,VALID,0,VALID,18.3959,VALID,184,VALID,1.24043,
2000-02-06, 02:44:00,VALID,0,VALID,98.8418,VALID,-0.0509425,VALID,18.3901,VALID,184,VALID,0.996745,
2000-02-06, 02:45:00,VALID,0,VALID,98.8253,VALID,0,VALID,18.3541,VALID,208,VALID,0.639186,
2000-02-06, 02:46:00,VALID,0,VALID,98.9003,VALID,-0.0169808,VALID,18.3673,VALID,207,VALID,1.04297,
2000-02-06, 02:47:00,VALID,0,VALID,98.9016,VALID,-0.0169808,VALID,18.37,VALID,205,VALID,0.898849,
2000-02-06, 02:48:01,VALID,0,VALID,98.899,VALID,0,VALID,18.3603,VALID,195,VALID,1.49653,
2000-02-06, 02:49:00,VALID,0,VALID,98.8596,VALID,-0.0169808,VALID,18.3601,VALID,173,VALID,1.05187,
2000-02-06, 02:50:01,VALID,0,VALID,98.8711,VALID,0,VALID,18.3513,VALID,183,VALID,1.39727,
2000-02-06, 02:51:00,VALID,0,VALID,98.9906,VALID,-0.0169808,VALID,18.3442,VALID,179,VALID,1.25762,
2000-02-06, 02:52:00,VALID,0,VALID,99.0466,VALID,0,VALID,18.3576,VALID,191,VALID,1.27878,
2000-02-06, 02:53:00,VALID,0,VALID,99.0198,VALID,-0.0169808,VALID,18.3541,VALID,169,VALID,1.29235,
2000-02-06, 02:54:00,VALID,0,VALID,98.9626,VALID,0,VALID,18.3382,VALID,141,VALID,1.09417,
2000-02-06, 02:55:00,VALID,0,VALID,98.9283,VALID,0,VALID,18.322,VALID,120,VALID,1.18008,
2000-02-06, 02:56:00,VALID,0,VALID,98.9168,VALID,0,VALID,18.325,VALID,124,VALID,1.10236,
2000-02-06, 02:57:00,VALID,0,VALID,98.8723,VALID,-0.0339617,VALID,18.3283,VALID,140,VALID,1.19696,
2000-02-06, 02:58:00,VALID,0,VALID,98.8533,VALID,0,VALID,18.3278,VALID,147,VALID,1.04238,
2000-02-06, 02:59:00,VALID,0,VALID,98.8151,VALID,0,VALID,18.3405,VALID,160,VALID,0.856337,
2000-02-06, 03:00:00,VALID,0,VALID,98.8139,VALID,0,VALID,18.3537,VALID,177,VALID,1.09272,
2000-02-06, 03:01:01,VALID,0,VALID,98.7846,VALID,0,VALID,18.3733,VALID,172,VALID,0.879317,
2000-02-06, 03:02:00,VALID,0,VALID,98.6829,VALID,0,VALID,18.3733,VALID,182,VALID,0.952508,
2000-02-06, 03:03:00,VALID,0,VALID,98.5405,VALID,0,VALID,18.3633,VALID,192,VALID,1.04839,
2000-02-06, 03:04:00,VALID,0,VALID,98.468,VALID,0,VALID,18.35,VALID,197,VALID,0.97678,
2000-02-06, 03:05:00,VALID,0,VALID,98.4425,VALID,0,VALID,18.3737,VALID,201,VALID,0.795703,
2000-02-06, 03:06:00,VALID,0,VALID,98.3701,VALID,0,VALID,18.37,VALID,208,VALID,0.461133,
2000-02-06, 03:07:00,VALID,0,VALID,98.2696,VALID,0,VALID,18.3931,VALID,193,VALID,0.683183,
2000-02-06, 03:08:00,VALID,0,VALID,98.3065,VALID,0,VALID,18.3887,VALID,180,VALID,1.23705,
2000-02-06, 03:09:00,VALID,0,VALID,98.1971,VALID,0.0169808,VALID,18.4116,VALID,180,VALID,1.09291,
2000-02-06, 03:10:00,VALID,0,VALID,98.1374,VALID,0,VALID,18.4379,VALID,186,VALID,1.03359,
2000-02-06, 03:11:00,VALID,0,VALID,97.9517,VALID,0.0339617,VALID,18.4667,VALID,189,VALID,1.08494,
2000-02-06, 03:12:01,VALID,0,VALID,97.6478,VALID,-0.0169808,VALID,18.4732,VALID,178,VALID,0.817434,
2000-02-06, 03:13:00,VALID,0,VALID,97.457,VALID,0,VALID,18.4667,VALID,172,VALID,0.668359,
2000-02-06, 03:14:00,VALID,0,VALID,97.3337,VALID,0,VALID,18.4637,VALID,171,VALID,0.60829,
2000-02-06, 03:15:00,VALID,0,VALID,97.4532,VALID,0,VALID,18.4478,VALID,182,VALID,0.562706,
2000-02-06, 03:16:00,VALID,0,VALID,97.4736,VALID,0,VALID,18.4316,VALID,203,VALID,0.740543,
2000-02-06, 03:17:00,VALID,0,VALID,97.471,VALID,-0.0169808,VALID,18.4189,VALID,212,VALID,0.836965,
2000-02-06, 03:18:00,VALID,0,VALID,97.5015,VALID,0,VALID,18.3959,VALID,191,VALID,1.00043,
2000-02-06, 03:19:00,VALID,0,VALID,97.4431,VALID,0,VALID,18.37,VALID,183,VALID,0.966146,
2000-02-06, 03:20:00,VALID,0,VALID,97.438,VALID,0,VALID,18.3405,VALID,178,VALID,1.07344,
2000-02-06, 03:21:00,VALID,0,VALID,97.541,VALID,0,VALID,18.3472,VALID,179,VALID,1.19355,
2000-02-06, 03:22:00,VALID,0,VALID,97.5143,VALID,0,VALID,18.3539,VALID,184,VALID,1.22471,
2000-02-06, 03:23:00,VALID,0,VALID,97.4952,VALID,0,VALID,18.3576,VALID,185,VALID,1.13569,
2000-02-06, 03:24:00,VALID,0,VALID,97.4685,VALID,0,VALID,18.3636,VALID,185,VALID,1.0758,
2000-02-06, 03:25:00,VALID,0,VALID,97.4303,VALID,0,VALID,18.3668,VALID,193,VALID,1.11172,
2000-02-06, 03:26:00,VALID,0,VALID,97.4011,VALID,0,VALID,18.367,VALID,213,VALID,0.951322,
2000-02-06, 03:27:00,VALID,0,VALID,97.4443,VALID,-0.0339617,VALID,18.3864,VALID,219,VALID,1.02447,
2000-02-06, 03:28:00,VALID,0,VALID,97.4164,VALID,0,VALID,18.406,VALID,218,VALID,1.10859,
2000-02-06, 03:29:00,VALID,0,VALID,97.3553,VALID,0,VALID,18.412,VALID,221,VALID,1.01997,
2000-02-06, 03:30:00,VALID,0,VALID,97.3248,VALID,0,VALID,18.4316,VALID,219,VALID,0.924342,
2000-02-06, 03:31:00,VALID,0,VALID,97.2994,VALID,0,VALID,18.4344,VALID,219,VALID,1.0625,
2000-02-06, 03:32:01,VALID,0,VALID,97.2816,VALID,0.0339617,VALID,18.4607,VALID,218,VALID,0.856497,
2000-02-06, 03:33:01,VALID,0,VALID,97.251,VALID,0,VALID,18.457,VALID,229,VALID,0.503038,
2000-02-06, 03:34:00,VALID,0,VALID,97.2116,VALID,0,VALID,18.4669,VALID,225,VALID,0.356988,
2000-02-06, 03:35:00,VALID,0,VALID,97.1811,VALID,-0.0169808,VALID,18.4637,VALID,233,VALID,0.400391,
2000-02-06, 03:36:00,VALID,0,VALID,97.2015,VALID,0,VALID,18.4773,VALID,232,VALID,0.421875,
2000-02-06, 03:37:00,VALID,0,VALID,97.1849,VALID,0,VALID,18.4771,VALID,224,VALID,0.506373,
2000-02-06, 03:38:00,VALID,0,VALID,97.1379,VALID,0,VALID,18.4736,VALID,213,VALID,0.811883,
2000-02-06, 03:39:00,VALID,0,VALID,97.0921,VALID,0,VALID,18.4568,VALID,212,VALID,1.07834,
2000-02-06, 03:40:00,VALID,0,VALID,97.0539,VALID,0,VALID,18.4704,VALID,205,VALID,0.983594,
2000-02-06, 03:41:00,VALID,0,VALID,96.9395,VALID,0.0169808,VALID,18.4833,VALID,188,VALID,1.13161,
2000-02-06, 03:42:00,VALID,0,VALID,96.8136,VALID,0.0169808,VALID,18.4925,VALID,185,VALID,1.36349,
2000-02-06, 03:43:00,VALID,0,VALID,96.7844,VALID,0,VALID,18.4955,VALID,194,VALID,1.42383,
2000-02-06, 03:44:00,VALID,0,VALID,96.6966,VALID,0,VALID,18.5181,VALID,197,VALID,1.21701,
2000-02-06, 03:45:00,VALID,0,VALID,96.6496,VALID,0,VALID,18.5417,VALID,200,VALID,1.10855,
2000-02-06, 03:46:00,VALID,0,VALID,96.5224,VALID,0.0169808,VALID,18.5643,VALID,198,VALID,0.686266,
2000-02-06, 03:47:00,VALID,0,VALID,96.5046,VALID,0,VALID,18.5638,VALID,204,VALID,0.370477,
2000-02-06, 03:48:00,VALID,0,VALID,96.4728,VALID,0,VALID,18.57,VALID,195,VALID,0.781033,
2000-02-06, 03:49:00,VALID,0,VALID,96.4042,VALID,0,VALID,18.5673,VALID,189,VALID,0.890842,
2000-02-06, 03:50:00,VALID,0,VALID,96.3965,VALID,0,VALID,18.5507,VALID,181,VALID,0.823633,
2000-02-06, 03:51:00,VALID,0,VALID,96.5262,VALID,0,VALID,18.5479,VALID,170,VALID,1.01563,
2000-02-06, 03:52:00,VALID,0,VALID,96.5262,VALID,0,VALID,18.5417,VALID,165,VALID,0.787829,
2000-02-06, 03:53:00,VALID,0,VALID,96.4538,VALID,0,VALID,18.5124,VALID,155,VALID,0.726768,
2000-02-06, 03:54:00,VALID,0,VALID,96.6661,VALID,0.0169808,VALID,18.4669,VALID,169,VALID,0.72614,
2000-02-06, 03:55:00,VALID,0,VALID,96.9281,VALID,-0.0169808,VALID,18.454,VALID,171,VALID,0.919531,
2000-02-06, 03:56:00,VALID,0,VALID,97.0133,VALID,0,VALID,18.4443,VALID,171,VALID,0.642829,
2000-02-06, 03:57:00,VALID,0,VALID,97.0552,VALID,0,VALID,18.4473,VALID,171,VALID,0.746916,
2000-02-06, 03:58:00,VALID,0,VALID,97.059,VALID,0,VALID,18.4312,VALID,182,VALID,0.802148,
2000-02-06, 03:59:00,VALID,0,VALID,97.1557,VALID,-0.0169808,VALID,18.4346,VALID,196,VALID,1.22483,
2000-02-06, 04:00:00,VALID,0,VALID,97.1862,VALID,0.0169808,VALID,18.4349,VALID,202,VALID,1.06086,
2000-02-06, 04:01:00,VALID,0,VALID,97.1773,VALID,0.0339617,VALID,18.4665,VALID,198,VALID,1.44326,
2000-02-06, 04:02:00,VALID,0,VALID,96.881,VALID,0,VALID,18.5313,VALID,200,VALID,1.21258,
2000-02-06, 04:03:00,VALID,0,VALID,96.5784,VALID,0,VALID,18.5797,VALID,193,VALID,0.954861,
2000-02-06, 04:04:00,VALID,0,VALID,96.4029,VALID,0,VALID,18.609,VALID,208,VALID,0.841363,
2000-02-06, 04:05:01,VALID,0,VALID,96.3368,VALID,0,VALID,18.6344,VALID,202,VALID,0.876367,
2000-02-06, 04:06:01,VALID,0,VALID,96.1791,VALID,-0.0169808,VALID,18.6473,VALID,198,VALID,1.04551,
2000-02-06, 04:07:00,VALID,0,VALID,95.9553,VALID,-0.0169808,VALID,18.69,VALID,204,VALID,1.14289,
2000-02-06, 04:08:00,VALID,0,VALID,95.8154,VALID,0,VALID,18.6955,VALID,202,VALID,0.507607,